{"data":{"norad_id":44048,"intl_designator":"2019-009A","name":"NUSANTARA SATU","alt_names":[],"object_type":"PAYLOAD","status":"ACTIVE","operator":null,"country":"INDO","launch_date":"2019-02-22","launch_site_code":"AFETR","launch_vehicle":null,"mission":null,"orbit_class":"UNKNOWN","rcs_meters":null,"size_class":null,"mass_kg":null,"dimensions":null,"purposes":["comms"],"wikipedia_slug":null,"has_3d_model":false,"image_url":null,"decayed_at":null,"tle_current":{"epoch":"2026-09-18T22:50:49.533216Z","epoch_age_seconds":155747,"freshness":"FRESH","line1":"1 44048U 19009A   26261.95196219 -.00000239  00000+0  00000+0 0  9991","line2":"2 44048   0.0248 141.3016 0004444   6.3102 338.9851  1.00270998 27710","mean_motion":1.00270998,"eccentricity":0.0004444,"inclination_deg":0.0248,"raan_deg":141.3016,"arg_perigee_deg":6.3102,"mean_anomaly_deg":338.9851,"bstar":0,"rev_number":2771,"period_min":1436.1081755664,"perigee_km":35768.077482373,"apogee_km":35805.553692232,"semimajor_km":42164.952587303,"source":"CELESTRAK","updated_at":"2026-09-20T09:00:35.265699Z"}}}